Wind_Speed
51 52 51 50 49 49 49 48 48 47 46 46 46 46 46 45 45 45 44 44 44 44 44 44 44 43 43 43 42 41 40 38 37 35 32 30 29 27
50 50 49 49 49 50 50 49 49 48 47 46 46 46 47 47 47 46 45 45 45 44 44 44 44 43 42 42 41 40 38 37 35 33 31 29 28 26
48 49 49 49 50 51 52 51 50 50 49 48 48 47 48 47 47 47 47 46 45 44 44 44 43 43 42 41 40 38 37 36 34 32 30 28 27 26
50 51 51 51 52 52 52 52 52 52 51 50 50 50 50 49 49 48 47 46 45 44 43 43 42 42 41 39 38 37 36 34 32 30 28 27 26 25
52 52 53 53 53 54 54 54 54 54 53 52 53 52 51 51 49 47 46 46 44 43 42 42 41 40 38 37 36 36 34 32 30 29 28 26 25 25
54 55 54 55 55 55 56 56 56 55 55 54 55 53 51 50 48 46 45 43 42 42 41 41 40 39 38 36 36 34 33 31 29 28 27 26 25 24
55 56 57 57 58 57 57 57 57 57 56 55 54 53 49 48 47 45 44 43 43 42 41 40 39 38 36 35 34 33 31 30 28 27 26 25 24 23
56 56 57 58 58 57 56 56 56 56 55 54 53 51 49 47 46 45 44 43 42 41 40 39 38 37 35 34 33 32 30 29 27 26 25 25 24 23
58 59 58 57 56 56 55 55 55 54 52 51 49 49 48 46 44 43 42 41 40 39 38 38 37 35 34 33 32 30 29 27 26 26 25 24 23 23
57 56 56 56 55 54 54 53 53 53 52 50 48 47 46 46 44 43 42 40 39 38 38 37 36 35 34 32 31 29 28 27 26 26 25 24 23 23
52 53 54 53 54 54 53 51 51 50 48 48 47 46 46 45 44 43 42 40 39 38 37 36 35 34 33 32 30 29 28 27 26 25 24 24 23 23
49 50 51 52 52 52 51 50 49 48 48 47 47 47 46 45 44 43 41 40 39 37 36 36 35 34 32 31 30 29 28 27 26 25 25 24 24 24
48 48 49 51 51 51 50 49 47 47 47 47 47 47 46 45 44 42 40 38 37 36 36 35 35 33 32 31 30 29 28 27 26 26 26 25 24 24
47 47 48 49 50 50 49 49 48 48 48 47 47 46 45 43 41 40 38 37 37 36 36 35 34 33 32 31 30 29 28 28 27 27 26 26 26 25
46 45 46 47 48 48 48 48 48 47 47 47 46 45 43 42 40 39 38 36 36 35 35 34 33 33 32 31 30 29 29 28 28 28 28 27 27 27
44 44 44 45 46 46 45 45 46 46 45 44 43 43 42 41 39 38 37 36 35 35 34 33 33 32 32 31 30 30 29 29 29 29 29 29 28 28
43 42 43 43 45 45 45 44 45 45 44 43 43 41 41 41 40 39 37 36 35 35 34 33 33 32 31 31 31 30 30 29 29 29 29 29 28 28
41 41 41 41 42 43 44 44 44 44 44 43 42 42 41 40 39 38 37 36 36 35 34 33 32 32 32 32 31 31 31 30 30 30 30 29 29 29
40 40 40 40 41 42 43 44 44 44 43 42 41 41 40 39 38 37 36 36 36 35 34 34 33 33 32 32 32 32 32 31 30 30 30 30 30 29
38 39 38 39 39 40 41 42 41 41 41 40 40 39 38 38 37 37 36 35 35 35 34 34 33 33 33 33 33 33 32 32 31 31 31 31 30 30
37 37 37 37 38 39 39 40 40 39 39 39 39 38 38 37 37 36 36 35 35 34 34 34 34 33 33 33 33 33 33 32 32 32 31 31 31 31
35 35 35 35 36 37 37 37 38 38 38 38 38 38 37 37 36 36 35 35 34 34 34 34 34 33 33 33 33 34 33 33 33 33 33 32 31 31
33 32 32 32 33 34 35 36 36 36 36 37 37 37 36 36 36 36 35 34 34 34 33 33 33 33 33 33 33 33 33 33 34 34 33 33 33 32
Wind_Direction
262 263 264 264 264 264 265 266 268 269 269 270 271 272 272 273 273 273 275 277 280 282 283 286 287 289 292 294 296 297 298 299 299 297 295 292 288 285
264 263 264 264 264 264 265 266 267 268 268 269 271 272 272 271 271 272 275 277 279 281 283 285 286 287 290 292 294 295 296 296 296 294 292 288 286 282
262 262 263 264 264 265 266 266 266 267 268 268 269 270 270 270 270 272 275 276 278 281 284 284 285 286 289 291 293 294 294 294 294 292 290 286 283 279
263 263 263 263 263 264 264 263 264 265 266 267 268 269 269 270 271 271 274 276 278 280 281 282 284 286 288 290 291 292 292 292 291 290 288 285 280 276
263 263 264 264 264 264 263 263 264 264 266 267 269 269 269 270 270 271 273 275 276 278 280 281 283 285 286 288 289 290 290 290 289 287 284 281 277 272
264 264 264 264 264 264 263 264 264 264 265 266 268 268 268 268 268 269 272 273 275 277 278 280 282 284 285 286 287 288 288 287 286 284 281 278 274 270
264 263 263 264 263 264 264 265 264 264 264 265 265 265 265 265 267 269 270 271 274 275 277 279 280 281 282 283 285 285 285 285 284 282 278 275 272 268
265 263 263 264 264 264 263 262 262 263 263 264 264 262 263 265 266 267 268 270 272 273 275 277 278 279 280 281 282 282 282 282 280 278 276 272 269 266
266 265 263 263 263 262 260 259 260 260 260 261 261 261 262 263 265 266 267 269 270 272 274 275 276 276 277 278 278 278 278 279 278 274 273 270 265 263
265 264 262 260 259 258 258 258 259 258 258 259 260 261 262 263 265 265 266 267 269 271 272 273 273 274 275 276 276 275 275 275 274 272 270 266 263 261
267 264 261 259 257 256 256 256 258 258 258 259 261 262 263 263 264 264 265 266 268 269 270 271 271 272 272 273 273 273 273 272 271 269 266 264 261 258
266 263 260 258 255 255 256 256 257 257 256 257 258 259 260 262 263 263 263 264 266 267 268 269 269 269 269 270 270 270 270 269 267 265 263 261 259 256
268 263 258 256 255 255 255 254 255 255 255 255 256 257 259 260 260 261 261 263 264 265 266 266 266 266 266 267 268 267 266 265 264 262 261 259 256 254
267 263 259 256 256 255 255 254 254 254 254 254 255 256 257 258 258 259 259 260 262 263 264 264 264 264 264 265 265 265 264 262 260 259 259 257 255 252
268 263 259 256 255 255 255 254 253 253 253 253 254 254 254 254 255 257 256 258 260 262 263 262 261 261 262 263 263 263 261 260 259 258 258 256 255 253
267 263 260 256 255 254 254 254 252 252 253 252 252 252 252 252 252 254 255 257 260 260 260 260 259 259 260 260 261 261 260 258 258 257 257 255 254 252
268 263 259 257 254 252 251 250 251 250 251 251 250 251 252 251 252 254 256 258 257 258 258 258 258 258 259 259 259 259 258 257 257 257 255 254 252 252
268 263 259 255 253 250 249 249 250 249 250 250 249 250 250 250 252 253 254 255 255 256 256 256 256 257 258 259 258 257 257 257 256 256 255 253 252 251
266 262 259 255 253 251 249 249 249 249 248 249 248 248 249 250 250 251 252 253 253 254 254 255 255 256 257 257 256 256 256 255 255 255 254 253 252 251
265 263 259 255 253 250 247 247 247 246 246 246 245 247 248 248 249 250 250 251 252 253 253 253 254 255 255 255 255 255 255 255 255 254 254 253 253 252
265 264 260 256 252 249 247 246 246 246 244 243 244 245 246 247 248 249 249 250 251 252 253 253 253 254 256 256 255 254 254 254 253 253 253 253 253 253
266 263 259 255 252 249 246 245 244 244 242 241 242 243 244 245 245 247 248 248 250 251 252 252 253 254 255 255 254 254 254 253 252 252 252 253 253 253
266 261 256 254 250 246 244 242 242 241 239 239 240 241 242 243 244 245 246 247 249 251 252 252 252 253 253 253 253 253 253 252 252 251 251 252 253 253
Height
5716 5717 5717 5717 5717 5717 5717 5717 5718 5717 5717 5717 5716 5716 5715 5714 5713 5712 5711 5710 5709 5707 5705 5704 5702 5699 5697 5694 5692 5689 5686 5684 5681 5678 5676 5674 5673 5672
5704 5704 5705 5705 5705 5705 5705 5705 5705 5705 5705 5705 5704 5704 5703 5702 5701 5700 5699 5698 5697 5696 5694 5693 5691 5689 5687 5684 5682 5679 5677 5675 5672 5670 5668 5666 5665 5664
5691 5691 5692 5692 5692 5692 5692 5692 5692 5692 5692 5692 5692 5691 5690 5690 5689 5688 5688 5687 5686 5685 5684 5682 5681 5679 5677 5674 5672 5670 5668 5666 5664 5662 5660 5659 5658 5657
5678 5678 5678 5678 5679 5679 5679 5679 5678 5678 5679 5679 5678 5678 5678 5677 5677 5676 5676 5675 5674 5673 5672 5671 5670 5668 5666 5664 5663 5661 5659 5657 5655 5653 5652 5651 5650 5650
5664 5664 5664 5664 5665 5665 5664 5664 5664 5665 5665 5665 5665 5665 5664 5664 5664 5664 5663 5663 5662 5662 5661 5660 5659 5658 5656 5655 5653 5652 5650 5649 5647 5645 5644 5643 5643 5643
5650 5650 5649 5650 5650 5650 5649 5649 5650 5650 5651 5651 5651 5651 5651 5651 5651 5651 5651 5651 5651 5650 5650 5649 5648 5647 5646 5645 5644 5643 5641 5640 5638 5637 5636 5636 5635 5635
5634 5634 5634 5633 5634 5634 5634 5634 5634 5635 5636 5637 5637 5637 5638 5638 5639 5639 5639 5639 5639 5639 5639 5638 5638 5637 5636 5635 5634 5633 5632 5631 5630 5629 5628 5628 5628 5628
5617 5617 5617 5617 5617 5617 5617 5618 5619 5620 5621 5622 5623 5623 5624 5625 5626 5626 5627 5627 5628 5628 5628 5628 5627 5627 5626 5626 5625 5625 5624 5623 5622 5621 5621 5621 5621 5622
5599 5599 5600 5600 5600 5600 5601 5602 5603 5605 5607 5608 5609 5610 5611 5612 5613 5614 5615 5615 5616 5616 5616 5617 5617 5617 5617 5616 5616 5615 5615 5614 5614 5614 5614 5614 5614 5615
5580 5580 5581 5582 5583 5584 5585 5586 5588 5590 5592 5594 5595 5596 5598 5599 5600 5602 5602 5604 5604 5605 5605 5606 5606 5607 5607 5607 5607 5607 5606 5606 5606 5606 5606 5607 5607 5608
5562 5562 5562 5564 5566 5567 5569 5571 5573 5575 5577 5580 5581 5583 5585 5586 5588 5589 5590 5592 5593 5594 5594 5596 5596 5596 5597 5598 5598 5598 5598 5598 5598 5598 5599 5599 5600 5601
5544 5544 5545 5546 5549 5551 5553 5556 5558 5561 5563 5566 5568 5570 5572 5573 5575 5577 5578 5580 5581 5582 5583 5585 5585 5586 5587 5588 5588 5589 5589 5589 5590 5590 5591 5592 5593 5594
5526 5527 5528 5529 5532 5535 5538 5541 5543 5546 5549 5552 5554 5557 5559 5561 5563 5565 5566 5568 5570 5571 5572 5574 5575 5576 5577 5578 5579 5579 5580 5581 5582 5582 5583 5584 5585 5587
5510 5511 5512 5514 5517 5519 5522 5525 5529 5532 5535 5538 5541 5543 5546 5548 5550 5552 5554 5556 5558 5560 5561 5563 5564 5566 5567 5568 5569 5570 5571 5572 5573 5574 5575 5577 5578 5579
5494 5495 5496 5499 5502 5504 5508 5511 5514 5518 5522 5525 5528 5531 5534 5536 5539 5541 5543 5545 5547 5548 5550 5552 5554 5555 5557 5558 5559 5561 5562 5563 5564 5566 5567 5568 5570 5571
5479 5480 5481 5484 5487 5490 5494 5497 5501 5505 5508 5511 5515 5518 5521 5524 5527 5529 5532 5534 5536 5537 5539 5541 5543 5545 5547 5548 5550 5551 5553 5554 5555 5557 5558 5560 5561 5562
5465 5465 5467 5470 5473 5477 5480 5484 5487 5491 5495 5498 5502 5506 5509 5512 5515 5517 5520 5522 5525 5527 5529 5531 5533 5535 5536 5538 5540 5541 5543 5544 5546 5548 5549 5551 5552 5554
5450 5452 5455 5457 5460 5463 5467 5470 5474 5478 5482 5485 5489 5493 5497 5500 5503 5506 5508 5511 5513 5516 5518 5520 5522 5525 5527 5528 5530 5531 5533 5535 5536 5538 5540 5541 5543 5545
5437 5439 5442 5444 5447 5450 5453 5457 5461 5465 5469 5473 5477 5481 5484 5488 5491 5494 5497 5500 5502 5505 5507 5510 5512 5514 5516 5518 5520 5522 5523 5525 5527 5528 5530 5532 5534 5536
5424 5426 5428 5431 5434 5436 5440 5444 5447 5451 5456 5460 5465 5469 5473 5476 5480 5483 5486 5489 5491 5494 5497 5499 5501 5503 5505 5508 5510 5511 5513 5515 5517 5519 5520 5522 5524 5526
5412 5413 5415 5418 5420 5424 5427 5431 5435 5439 5443 5448 5453 5457 5461 5465 5468 5471 5475 5477 5480 5483 5485 5488 5490 5493 5495 5497 5499 5500 5502 5504 5507 5509 5511 5512 5514 5516
5399 5401 5403 5405 5408 5411 5415 5419 5423 5427 5432 5436 5441 5445 5450 5453 5457 5460 5463 5466 5469 5472 5474 5477 5479 5482 5484 5486 5488 5490 5492 5494 5496 5498 5500 5503 5504 5506
5388 5389 5391 5393 5396 5399 5403 5407 5411 5416 5420 5425 5430 5434 5438 5442 5446 5449 5452 5455 5458 5461 5464 5466 5469 5471 5473 5475 5477 5479 5481 5483 5485 5488 5490 5492 5494 5496